This is the latest recevied weather packets stored in our database for station/object DN9EM-2. If no packets are shown the sender has not sent any weather packets the latest 10 day(s).
| Time | Temp. | Humidity | Pressure | Rain* | Wind** | Luminosity | Snow |
|---|---|---|---|---|---|---|---|
| 1788560145 | 15° C | 87% | 1010 hPa | 0 mm | - | - | - |
| 1788559542 | 15° C | 87% | 1010 hPa | 0 mm | - | - | - |
| 1788558940 | 15.56° C | 86% | 1010 hPa | 0 mm | - | - | - |
| 1788558337 | 15.56° C | 86% | 1009.9 hPa | 0 mm | - | - | - |
| 1788557734 | 15.56° C | 85% | 1009.8 hPa | 0 mm | - | - | - |
| 1788557132 | 15.56° C | 85% | 1009.7 hPa | 0 mm | - | - | - |
| 1788556529 | 15.56° C | 85% | 1009.6 hPa | 0 mm | - | - | - |
| 1788555926 | 15.56° C | 85% | 1009.6 hPa | 0 mm | - | - | - |
| 1788555324 | 15.56° C | 85% | 1009.6 hPa | 0 mm | - | - | - |
| 1788554721 | 15.56° C | 86% | 1009.4 hPa | 0 mm | - | - | - |
| 1788554118 | 15.56° C | 85% | 1009.5 hPa | 0 mm | - | - | - |
| 1788553516 | 15.56° C | 85% | 1009.6 hPa | 0 mm | - | - | - |
| 1788552973 | 15.56° C | 85% | 1009.5 hPa | 0 mm | - | - | - |
| 1788552371 | 15.56° C | 85% | 1009.5 hPa | 0 mm | - | - | - |
| 1788551768 | 15.56° C | 84% | 1009.5 hPa | 0 mm | - | - | - |
| 1788551165 | 15.56° C | 82% | 1009.4 hPa | 0 mm | - | - | - |
| 1788550563 | 16.11° C | 81% | 1009.3 hPa | 0.25 mm | - | - | - |
| 1788549960 | 15.56° C | 82% | 1009.2 hPa | 0.25 mm | - | - | - |
| 1788549358 | 15.56° C | 83% | 1009.1 hPa | 0.25 mm | - | - | - |
| 1788548755 | 15.56° C | 83% | 1009.1 hPa | 0.25 mm | - | - | - |
| 1788548152 | 15.56° C | 86% | 1009.1 hPa | 0.25 mm | - | - | - |
| 1788547549 | 16.11° C | 83% | 1009 hPa | 0.25 mm | - | - | - |
| 1788546946 | 16.67° C | 82% | 1008.7 hPa | 0 mm | - | - | - |
| 1788546344 | 16.67° C | 82% | 1008.5 hPa | 0 mm | - | - | - |
| 1788545741 | 16.67° C | 83% | 1008.5 hPa | 0 mm | - | - | - |
* Rain latest hour (hover to see other rain measurements)
** Current wind speed in m/s (hover to see current wind gust speed)